Overview Statistics Trail Chart Weather Telemetry Raw packets
 

This is the latest recevied weather packets stored in our database for station/object MB7UKB-10. If no packets are shown the sender has not sent any weather packets the latest 10 day(s).

<< 4 5 6 7 8 9 10 >>
Time Temp. Humidity Pressure Rain* Wind** Luminosity Snow
1788427833 21.11° C 71% 1017.9 hPa 0 mm - - -
1788426033 20.56° C 75% 1017.8 hPa 0 mm - - -
1788424234 20° C 79% 1017.6 hPa 0 mm - - -
1788422434 19.44° C 82% 1017.2 hPa 0 mm - - -
1788420633 18.89° C 84% 1016.5 hPa 0 mm - - -
1788417034 18.89° C 86% 1016.7 hPa 0 mm - - -
1788415233 18.33° C 86% 1016.6 hPa 0 mm - - -
1788413433 18.33° C 87% 1016.4 hPa 0 mm - - -
1788411633 18.33° C 87% 1016.1 hPa 0 mm - - -
1788409833 18.33° C 87% 1016.1 hPa 0 mm - - -
1788408034 18.33° C 87% 1016.1 hPa 0 mm - - -
1788406234 18.33° C 86% 1016.1 hPa 0 mm - - -
1788404434 18.89° C 86% 1016 hPa 0 mm - - -
1788402634 18.33° C 86% 1016 hPa 0 mm - - -
1788400834 18.33° C 86% 1016.1 hPa 0 mm - - -
1788399033 18.33° C 86% 1016 hPa 0 mm - - -
1788397234 18.33° C 86% 1016.4 hPa 0 mm - - -
1788395433 18.33° C 86% 1016.9 hPa 0 mm - - -
1788393633 18.33° C 86% 1016.8 hPa 0 mm - - -
1788391833 18.33° C 86% 1016.6 hPa 0 mm - - -
1788390033 18.33° C 87% 1017.1 hPa 0 mm - - -
1788388234 18.33° C 87% 1016.9 hPa 0 mm - - -
1788386433 18.33° C 88% 1017.4 hPa 0 mm - - -
1788384633 18.33° C 87% 1016.7 hPa 0 mm - - -
1788382834 18.89° C 87% 1016.8 hPa 0 mm - - -

* Rain latest hour (hover to see other rain measurements)
** Current wind speed in m/s (hover to see current wind gust speed)